Location: Ermatingen
(47.6706°N, 9.0857°E)
Time: 00:28:32
(UTC+00:00)

Cosmos 1428 Rocket - Pass Details

Date: 02 December 2021
Orbit: 949 x 987 km, 82.9° (Epoch: 17 January)

Event Time Altitude Azimuth Distance (km) Brightness Sun altitude
Rises 05:15:15 0° 157° (SSE) 3,635 8.1 -15.7°
Reaches altitude 10° 05:17:58 10° 149° (SSE) 2,687 7.5 -15.3°
Maximum altitude 05:23:23 34° 87° (E) 1,534 6.2 -14.4°
Drops below altitude 10° 05:28:46 10° 25° (NNE) 2,687 6.9 -13.5°
Sets 05:31:29 0° 17° (NNE) 3,634 7.5 -13.1°
